Tracking 31027 objects as of 19-Jul-2025
HD Live streaming from Space Station
objects crossing your sky now

TRANSIT 11 DEB

Track TRANSIT 11 DEB now!
10-day predictions


NORAD ID: 11991
Int'l Code: 1966-005H
Perigee: 829.0 km
Apogee: 1,082.9 km
Inclination: 90.2 °
Period: 104.0 minutes
Semi major axis: 7326 km
RCS: 0.2272 m2 (medium)
Launch date: January 28, 1966
Source: United States (US)
Launch site: AIR FORCE WESTERN TEST RANGE (AFWTR)

Note: This is SATELLITE DEBRIS
Your satellite tracking list
SL-12 R/B(AUX MOTOR)
Track 1 satellite(s)




NASA's NSSDC Master Catalog

Two Line Element Set (TLE):
1 11991U 66005H   25199.66034809  .00000618  00000-0  48732-3 0  9992
2 11991  90.1708 336.6072 0173243 284.1761  89.8718 13.84256891975452
Source of the keplerian elements: AFSPC